TimeCST,TemperatureF,Dew PointF,Humidity,Sea Level PressureIn,VisibilityMPH,Wind Direction,Wind SpeedMPH,Gust SpeedMPH,PrecipitationIn,Events,Conditions,WindDirDegrees,DateUTC
12:53 AM,37.9,36.0,93,30.07,10.0,SW,6.9,-,N/A,,Clear,220,2013-02-14 06:53:00
1:53 AM,37.9,36.0,93,30.07,10.0,SSW,6.9,-,N/A,,Clear,210,2013-02-14 07:53:00
2:53 AM,37.0,36.0,96,30.07,10.0,SW,5.8,-,N/A,,Clear,220,2013-02-14 08:53:00
3:53 AM,36.0,35.1,97,30.06,10.0,SW,5.8,-,N/A,,Clear,220,2013-02-14 09:53:00
4:53 AM,36.0,34.0,93,30.06,9.0,SW,4.6,-,N/A,,Clear,220,2013-02-14 10:53:00
5:53 AM,35.1,34.0,96,30.08,8.0,SSW,5.8,-,N/A,,Clear,210,2013-02-14 11:53:00
6:53 AM,35.1,34.0,96,30.10,7.0,SW,3.5,-,N/A,,Clear,230,2013-02-14 12:53:00
7:53 AM,36.0,35.1,97,30.12,6.0,Calm,Calm,-,N/A,,Clear,0,2013-02-14 13:53:00
8:53 AM,42.1,37.9,85,30.13,10.0,WSW,3.5,-,N/A,,Clear,250,2013-02-14 14:53:00
9:53 AM,48.0,37.9,68,30.14,10.0,West,5.8,-,N/A,,Clear,260,2013-02-14 15:53:00
10:53 AM,52.0,37.9,59,30.13,10.0,West,5.8,-,0.00,Rain,Light Rain,260,2013-02-14 16:53:00
11:53 AM,57.0,37.0,47,30.11,10.0,West,8.1,-,0.00,,Clear,280,2013-02-14 17:53:00
12:53 PM,60.1,36.0,41,30.08,10.0,WSW,4.6,-,N/A,,Clear,250,2013-02-14 18:53:00
1:53 PM,62.1,36.0,38,30.05,10.0,SW,10.4,-,N/A,,Clear,230,2013-02-14 19:53:00
2:53 PM,62.1,35.1,37,30.04,10.0,Calm,Calm,-,N/A,,Clear,0,2013-02-14 20:53:00
3:53 PM,63.0,34.0,34,30.03,10.0,SW,6.9,-,N/A,,Clear,220,2013-02-14 21:53:00
4:53 PM,63.0,34.0,34,30.04,10.0,SW,6.9,-,N/A,,Clear,220,2013-02-14 22:53:00
5:53 PM,59.0,34.0,39,30.04,10.0,SSW,3.5,-,N/A,,Clear,200,2013-02-14 23:53:00
6:53 PM,54.0,35.1,49,30.06,10.0,South,4.6,-,N/A,,Clear,180,2013-02-15 00:53:00
7:53 PM,53.1,34.0,48,30.06,10.0,South,4.6,-,N/A,,Clear,180,2013-02-15 01:53:00
8:53 PM,50.0,35.1,57,30.07,10.0,South,5.8,-,N/A,,Clear,190,2013-02-15 02:53:00
9:53 PM,48.9,35.1,59,30.09,10.0,SSW,3.5,-,N/A,,Clear,200,2013-02-15 03:53:00
10:53 PM,46.0,35.1,66,30.08,10.0,SSW,4.6,-,N/A,,Clear,200,2013-02-15 04:53:00
11:53 PM,45.0,35.1,68,30.08,10.0,SSW,4.6,-,N/A,,Clear,210,2013-02-15 05:53:00